TimeMST,TemperatureF,Dew PointF,Humidity,Sea Level PressureIn,VisibilityMPH,Wind Direction,Wind SpeedMPH,Gust SpeedMPH,PrecipitationIn,Events,Conditions,WindDirDegrees,DateUTC
12:53 AM,48.9,33.1,54,29.94,10.0,South,11.5,-,N/A,,Overcast,170,2012-11-17 07:53:00
1:53 AM,48.9,34.0,56,29.93,10.0,SSE,10.4,-,N/A,,Overcast,150,2012-11-17 08:53:00
2:53 AM,46.9,33.1,59,29.93,10.0,ESE,6.9,-,N/A,,Mostly Cloudy,120,2012-11-17 09:53:00
3:53 AM,45.0,33.1,63,29.93,10.0,SE,5.8,-,N/A,,Overcast,140,2012-11-17 10:53:00
4:53 AM,42.1,32.0,67,29.94,10.0,SSE,3.5,-,N/A,,Overcast,160,2012-11-17 11:53:00
5:53 AM,42.1,33.1,70,29.94,10.0,South,4.6,-,N/A,,Mostly Cloudy,180,2012-11-17 12:53:00
6:53 AM,39.9,30.9,70,29.93,10.0,Calm,Calm,-,N/A,,Clear,0,2012-11-17 13:53:00
7:53 AM,43.0,33.1,68,29.94,10.0,Calm,Calm,-,N/A,,Overcast,0,2012-11-17 14:53:00
8:53 AM,46.9,33.1,59,29.92,10.0,Calm,Calm,-,N/A,,Mostly Cloudy,0,2012-11-17 15:53:00
9:53 AM,55.0,34.0,45,29.90,10.0,SSE,9.2,-,N/A,,Clear,150,2012-11-17 16:53:00
10:53 AM,55.0,37.0,51,29.88,10.0,Calm,Calm,-,N/A,,Clear,0,2012-11-17 17:53:00
11:53 AM,59.0,33.1,38,29.82,10.0,SSE,21.9,31.1,N/A,,Partly Cloudy,150,2012-11-17 18:53:00
12:53 PM,59.0,33.1,38,29.77,10.0,South,24.2,33.4,N/A,,Mostly Cloudy,180,2012-11-17 19:53:00
1:53 PM,60.1,33.1,36,29.75,10.0,SSE,20.7,29.9,N/A,,Overcast,160,2012-11-17 20:53:00
2:53 PM,60.1,33.1,36,29.74,10.0,South,20.7,32.2,N/A,,Overcast,170,2012-11-17 21:53:00
3:53 PM,57.9,34.0,41,29.75,10.0,SSE,19.6,25.3,N/A,,Partly Cloudy,160,2012-11-17 22:53:00
4:53 PM,57.0,35.1,44,29.76,10.0,SSE,13.8,-,0.00,,Mostly Cloudy,160,2012-11-17 23:53:00
5:53 PM,55.9,35.1,45,29.75,10.0,SSE,19.6,27.6,N/A,,Overcast,150,2012-11-18 00:53:00
6:53 PM,54.0,36.0,51,29.76,10.0,SSE,18.4,-,N/A,,Partly Cloudy,160,2012-11-18 01:53:00
7:53 PM,54.0,35.1,49,29.75,10.0,SSE,16.1,-,N/A,,Mostly Cloudy,160,2012-11-18 02:53:00
8:53 PM,54.0,35.1,49,29.72,10.0,SSE,21.9,27.6,N/A,,Mostly Cloudy,160,2012-11-18 03:53:00
9:53 PM,54.0,35.1,49,29.71,10.0,South,20.7,31.1,N/A,,Overcast,170,2012-11-18 04:53:00
10:53 PM,50.0,37.9,63,29.76,10.0,SSW,11.5,23.0,0.00,Rain,Light Rain,200,2012-11-18 05:53:00
11:53 PM,48.9,37.0,64,29.73,10.0,South,10.4,-,0.00,,Overcast,180,2012-11-18 06:53:00